Vertical_Velocity
1 1 1 1 0 -1 -1 -1 -1 0 0 0 0 -0 0 0 -0 -1 -0 0 -0 -1 -0 -0 -1 -1 -1 -1 -1 -1 -2 -3 -2 -2 -2 -1 0 1 1 0 -1 -1 -0
-1 -0 -1 -1 -1 0 0 -0 -0 -1 0 0 0 -0 -0 -0 -1 -1 -1 0 0 0 -0 -0 1 1 0 -0 0 1 2 1 0 -1 -2 -2 -3 -2 -1 -1 -1 -1 -1
-1 -0 0 0 0 -0 -0 0 0 0 -0 -1 -0 0 -0 0 1 0 -0 -1 0 1 -0 -1 -1 0 0 -1 -2 -1 0 1 0 -0 -1 -2 -2 -3 -3 -2 -3 -2 -3
-2 -1 -1 -1 -1 -0 -0 0 -0 -1 0 0 0 0 -0 -0 1 1 1 -0 -1 -0 -0 -1 -2 -2 -1 -1 -2 -2 -2 -2 -2 -1 -0 -0 -0 -1 -0 1 0 0 0
-0 -1 -1 -0 0 0 -0 -1 0 0 -1 -2 -1 1 1 1 1 1 0 -0 -0 0 -1 -1 -2 -2 -1 -0 -0 -1 0 -1 -1 -1 -2 -1 -0 1 0 -1 -1 1 -0
0 -0 0 1 -0 -0 -1 -2 -1 -1 0 -0 -0 -0 1 0 -1 -1 0 -0 0 -0 -1 -2 -1 -0 -1 -1 -0 -0 -2 -1 -1 -1 -1 0 -1 -3 -5 -3 1 -1 -0
-0 1 0 -0 -1 -1 -0 0 0 -1 -1 1 2 1 -0 1 1 1 0 0 -0 0 -0 -2 -2 -2 -2 -2 -1 -0 -1 -1 -1 -1 -0 -1 -1 -1 -1 0 -1 -2 -4
-2 -1 1 0 0 1 -0 -1 -0 0 0 0 1 2 1 1 0 1 1 0 1 -1 -2 -3 -1 0 -1 -1 -3 -3 -2 -2 -1 -3 -4 -4 -3 -4 -5 -6 -5 -3 -2
-3 -0 -1 1 -0 -1 -0 -1 -1 -1 -0 -1 -1 -0 0 1 2 2 1 1 1 1 1 0 -3 -2 -1 -2 -1 -2 -2 -1 -2 -2 -1 -1 -0 -1 0 -1 -1 -0 -2
1 0 -2 0 -1 -0 -1 -1 -0 -0 -1 -1 -1 -1 -1 -2 -2 1 1 1 2 1 0 -1 -1 -2 -1 -3 -2 -1 -3 -3 -1 -2 -2 -1 -0 -2 -3 -3 -2 -1 -2
-0 -2 -1 -0 -0 -0 -0 0 -1 -2 -1 -2 -2 -2 -2 -2 -2 -1 -1 1 4 -1 -1 -3 -4 -5 -3 -4 -6 -5 -3 -0 -1 -3 -4 -3 -4 -4 -4 -4 -5 -5 -5
0 0 0 -1 -0 -0 -1 -2 -1 -2 -2 -0 0 -0 -1 -2 -2 -2 -3 -3 0 -0 -0 2 2 1 -1 -1 -1 -0 -1 -2 -0 1 1 2 0 -1 -0 -2 -1 -5 -1
-2 -1 0 0 -1 -1 -2 -2 -1 0 1 -0 -1 -2 -2 -2 -2 -3 -2 -1 -2 1 3 4 -0 0 2 1 1 -1 0 -1 -4 -3 -4 -1 -1 -1 -1 0 -1 -3 -0
4 -5 -0 -0 0 -0 1 -0 0 -0 -1 -0 0 0 0 -0 -1 0 -1 -3 -10 -5 -2 -2 2 -2 -1 -1 -2 -1 -4 -5 -3 -1 -0 -1 -1 -4 -3 -5 -3 -1 -2
1 -3 -0 0 -1 0 -2 -1 -2 -2 -0 -1 -2 -2 -1 -1 0 -1 -2 -3 0 -5 -10 -3 -2 4 2 -1 1 -3 -2 -1 1 -2 -1 -1 -3 1 -0 -3 -2 -2 -3
-0 -0 -1 0 -0 -0 -1 -0 -1 1 -2 -0 -2 1 -0 -2 -2 -1 -2 0 -0 -1 -5 -5 -3 -5 -2 -3 1 -0 1 -0 -3 -4 -3 -1 -3 0 1 -1 -1 -2 -2
-1 -1 0 2 1 2 2 1 3 -2 1 -5 -2 -1 0 -4 -2 0 1 0 -0 -0 -3 -8 -5 -5 -4 -6 -7 -6 -7 -6 -5 -3 -3 -6 -7 -6 -3 -0 -3 -1 -2
2 2 1 1 0 -1 2 1 -0 2 -3 2 -4 -5 1 -3 1 -0 -0 -3 -0 2 -2 -6 -3 -7 -5 -2 -2 -5 -6 -4 -7 -8 -4 -8 -6 -6 -1 -2 -2 -2 -2
0 -0 0 -2 0 1 1 -1 -2 5 3 -2 -1 -2 0 -0 0 -0 -3 -1 1 2 2 -2 -6 -1 -6 -7 -7 -3 -2 -1 -3 -8 -4 -5 -1 -5 -3 -2 -6 0 -4
3 4 5 6 1 -7 -1 -4 4 3 2 6 -3 -3 3 -1 -2 -2 0 -0 -1 -1 0 -2 -1 -2 -2 0 -1 -5 -2 -5 -12 -2 3 -4 1 -3 -5 -8 2 6 1
3 4 -3 14 -2 -5 0 -7 1 3 -1 2 -1 -2 0 -3 -1 -3 -1 1 -1 -0 -1 -2 -1 -3 -1 -4 -5 -6 -6 -3 -3 -4 -4 -13 -5 6 -2 -4 -5 9 3
1 5 1 -13 10 1 3 -0 -2 -2 4 -0 -4 5 -3 -1 -2 -1 0 -1 0 -2 -0 -2 -2 -3 -1 -2 -3 -4 -4 -6 -22 30 -1 -11 6 -2 -2 -3 -1 2 4
-3 14 5 -10 -0 6 -3 8 -1 1 1 -7 6 -4 -1 -1 -2 0 -1 -2 0 2 3 1 0 1 -4 -4 2 3 2 4 -1 -16 -4 -15 2 -2 -1 -3 1 -1 5
3 2 -3 -4 9 2 -4 5 -1 1 -5 3 -2 -1 -1 -1 -0 0 0 1 -1 -2 2 0 -2 -2 -3 -1 3 2 1 0 9 -3 -0 -12 -2 -3 -2 -2 5 -1 8
8 -1 0 1 6 -3 6 -0 -0 -3 2 -0 -2 -1 -1 -1 0 2 -4 -5 -0 3 2 2 -2 -1 -0 -0 0 -2 -2 -6 -13 -2 3 -1 -4 -11 1 -3 1 4 14
1 6 -2 5 1 3 -1 -8 3 1 -1 -2 -1 -0 -3 -2 0 -2 -2 -1 1 -1 -5 -5 -4 0 -1 -0 -3 -3 -3 1 4 -8 -0 1 -3 1 -9 -1 -0 9 -1
Height
1586 1586 1587 1588 1589 1589 1590 1590 1591 1591 1591 1591 1591 1591 1591 1591 1590 1590 1590 1589 1589 1589 1588 1588 1587 1586 1585 1584 1582 1581 1579 1577 1575 1573 1571 1569 1567 1564 1562 1560 1557 1555 1552
1586 1587 1588 1589 1589 1590 1590 1590 1590 1591 1591 1590 1590 1590 1590 1590 1591 1591 1590 1590 1590 1589 1589 1588 1587 1586 1585 1584 1582 1581 1579 1577 1574 1572 1569 1567 1564 1562 1559 1556 1554 1551 1548
1586 1587 1588 1589 1589 1589 1589 1590 1590 1590 1590 1590 1590 1590 1590 1590 1590 1590 1590 1590 1590 1590 1589 1588 1587 1586 1585 1584 1582 1580 1577 1575 1572 1569 1566 1563 1561 1558 1555 1552 1550 1547 1544
1586 1587 1588 1589 1589 1589 1589 1589 1589 1589 1590 1589 1589 1589 1589 1590 1590 1590 1590 1590 1590 1590 1589 1588 1587 1586 1584 1582 1579 1577 1574 1571 1569 1566 1563 1560 1557 1554 1552 1549 1546 1543 1540
1586 1587 1588 1588 1588 1589 1589 1589 1589 1589 1589 1589 1589 1589 1589 1589 1589 1590 1591 1591 1591 1590 1589 1588 1586 1584 1581 1579 1576 1574 1571 1568 1564 1561 1558 1555 1553 1550 1546 1544 1541 1538 1535
1585 1586 1587 1588 1588 1588 1588 1588 1588 1588 1588 1588 1588 1588 1588 1589 1590 1590 1591 1591 1591 1590 1589 1587 1584 1582 1579 1577 1573 1570 1567 1564 1561 1557 1554 1551 1547 1544 1541 1539 1536 1533 1530
1584 1585 1586 1587 1587 1588 1588 1587 1587 1587 1587 1587 1587 1588 1589 1589 1590 1591 1590 1591 1590 1590 1588 1585 1583 1580 1577 1574 1571 1567 1564 1561 1558 1554 1551 1547 1543 1539 1535 1532 1529 1525 1522
1583 1584 1585 1586 1586 1587 1587 1587 1586 1586 1586 1586 1587 1587 1589 1591 1590 1590 1590 1590 1590 1588 1586 1584 1581 1578 1575 1571 1568 1565 1561 1557 1554 1550 1546 1542 1538 1534 1530 1527 1524 1520 1516
1581 1583 1583 1585 1586 1586 1586 1586 1585 1585 1585 1586 1586 1587 1587 1588 1588 1589 1589 1589 1588 1587 1584 1581 1579 1576 1572 1569 1565 1562 1558 1554 1550 1547 1542 1538 1533 1529 1525 1521 1517 1512 1508
1580 1581 1582 1583 1585 1585 1585 1584 1584 1584 1584 1585 1586 1586 1586 1587 1587 1588 1587 1587 1587 1584 1582 1579 1576 1573 1570 1567 1563 1560 1556 1552 1548 1543 1538 1533 1528 1523 1519 1514 1509 1504 1499
1577 1579 1581 1582 1583 1584 1584 1583 1583 1584 1584 1585 1585 1585 1585 1585 1585 1585 1584 1584 1583 1581 1579 1577 1574 1570 1567 1564 1560 1555 1551 1546 1541 1537 1533 1528 1522 1516 1511 1505 1500 1496 1491
1574 1577 1579 1581 1582 1583 1583 1583 1583 1583 1583 1584 1584 1584 1585 1585 1584 1583 1581 1579 1576 1573 1571 1569 1567 1564 1561 1558 1554 1551 1546 1542 1538 1532 1526 1521 1515 1509 1503 1497 1490 1485 1480
1571 1574 1576 1578 1580 1581 1582 1582 1582 1582 1582 1583 1583 1583 1583 1582 1582 1581 1579 1577 1573 1570 1567 1565 1563 1560 1556 1553 1549 1544 1541 1536 1531 1526 1521 1515 1508 1501 1494 1488 1482 1477 1472
1569 1571 1573 1575 1577 1579 1579 1580 1580 1580 1581 1581 1580 1581 1581 1580 1579 1578 1577 1575 1572 1568 1564 1562 1561 1557 1553 1549 1544 1539 1534 1530 1525 1519 1513 1507 1500 1493 1486 1479 1474 1468 1461
1564 1567 1569 1571 1574 1575 1576 1577 1578 1579 1579 1579 1580 1579 1579 1578 1577 1576 1574 1572 1571 1567 1562 1558 1556 1554 1550 1546 1540 1534 1529 1524 1519 1514 1508 1501 1495 1487 1479 1471 1465 1458 1450
1559 1562 1565 1567 1570 1571 1573 1573 1574 1575 1576 1577 1577 1577 1576 1576 1575 1573 1571 1569 1567 1566 1563 1558 1555 1551 1547 1543 1538 1532 1525 1519 1513 1508 1502 1494 1488 1480 1471 1463 1455 1448 1439
1554 1557 1560 1563 1565 1567 1568 1570 1571 1572 1573 1574 1575 1575 1574 1574 1572 1571 1569 1567 1564 1562 1558 1555 1551 1547 1543 1536 1531 1526 1520 1514 1507 1502 1496 1489 1483 1475 1467 1457 1448 1440 1432
1549 1552 1555 1558 1561 1563 1565 1567 1568 1569 1570 1570 1571 1572 1572 1571 1570 1568 1566 1565 1562 1558 1554 1548 1546 1541 1537 1531 1524 1517 1511 1506 1500 1497 1490 1483 1476 1469 1461 1451 1442 1431 1423
1542 1546 1549 1552 1555 1558 1561 1563 1565 1567 1566 1568 1568 1569 1568 1567 1566 1565 1562 1561 1558 1555 1550 1544 1538 1535 1529 1523 1516 1511 1504 1499 1494 1490 1485 1479 1473 1465 1457 1447 1437 1426 1415
1536 1540 1542 1545 1549 1552 1555 1558 1562 1564 1564 1564 1565 1565 1564 1563 1562 1560 1559 1556 1553 1549 1546 1540 1534 1528 1523 1517 1511 1504 1497 1493 1487 1482 1478 1473 1465 1459 1452 1444 1436 1421 1411
1528 1531 1536 1539 1543 1548 1551 1555 1559 1561 1562 1561 1563 1561 1560 1559 1558 1556 1554 1551 1548 1545 1541 1535 1530 1524 1518 1511 1507 1502 1497 1489 1483 1480 1473 1468 1462 1455 1449 1440 1431 1422 1413
1521 1523 1529 1539 1540 1541 1548 1552 1557 1558 1559 1558 1559 1557 1557 1556 1554 1553 1550 1548 1545 1540 1537 1531 1526 1520 1514 1510 1506 1502 1496 1489 1477 1477 1468 1463 1460 1453 1448 1439 1432 1425 1416
1515 1518 1526 1533 1536 1539 1545 1549 1552 1555 1555 1554 1556 1555 1553 1552 1550 1548 1546 1544 1542 1539 1534 1528 1523 1519 1513 1509 1504 1498 1493 1489 1484 1477 1470 1461 1459 1453 1448 1440 1434 1429 1423
1512 1516 1522 1528 1534 1536 1543 1546 1549 1550 1551 1551 1551 1551 1550 1548 1545 1543 1541 1539 1536 1533 1528 1525 1521 1517 1512 1507 1503 1497 1490 1483 1479 1476 1471 1460 1456 1452 1447 1442 1437 1431 1426
1508 1514 1521 1526 1530 1536 1540 1544 1545 1546 1547 1547 1547 1546 1545 1543 1541 1539 1536 1532 1530 1527 1525 1521 1517 1513 1508 1503 1498 1492 1488 1483 1473 1470 1466 1461 1454 1450 1447 1442 1439 1435 1432
1506 1513 1518 1525 1530 1532 1538 1540 1541 1543 1543 1543 1542 1541 1540 1539 1537 1534 1531 1527 1524 1520 1517 1514 1512 1509 1505 1499 1494 1491 1487 1481 1476 1468 1465 1461 1454 1452 1446 1442 1441 1438 1435